Change the Weather History Date:

Sunday, April 7, 2013

  Actual Average Record
Temperature  
Mean Temperature 63 °F 61 °F  
Max Temperature 79 °F 74 °F 90 °F (1967)
Min Temperature 47 °F 48 °F 30 °F (1982)
Degree Days  
Heating Degree Days 2 5  
Month to date heating degree days 52 41  
Since 1 July heating degree days 2211 2450  
Cooling Degree Days 0 2  
Month to date cooling degree days 3 10  
Year to date cooling degree days 41 32  
Growing Degree Days 12 (Base 50)    
Moisture  
Dew Point 47 °F    
Average Humidity 63    
Maximum Humidity 93    
Minimum Humidity 32    
Precipitation  
Precipitation 0.00 in 0.09 in 2.49 in (1973)
Month to date precipitation 1.54 0.65  
Year to date precipitation 11.91 11.57  
Sea Level Pressure  
Sea Level Pressure 30.19 in    
Wind  
Wind Speed 6 mph (SE)    
Max Wind Speed 15 mph    
Max Gust Speed 22 mph    
Visibility 7 miles    
Events Fog    
T = Trace of Precipitation, MM = Missing Value Source: NWS Daily Summary

Daily Weather History Graph

Daily Weather History Graph

Search for Another Location

Airport or City:

Trip Planner

Search our weather history database for the weather conditions in past years. The results will help you decide how hot, cold, wet, or windy it might be!

Date:

Astronomy

Apr. 07, 2013 Rise Set
Actual Time 7:03 AM EDT 7:49 PM EDT
Civil Twilight 6:38 AM EDT 8:15 PM EDT
Nautical Twilight 6:08 AM EDT 8:45 PM EDT
Astronomical Twilight 5:37 AM EDT 9:16 PM EDT
Moon 5:13 AM EDT (4/7) 5:26 PM EDT (4/7)
Length of Visible Light 13h 37m
Length of Day
12h 46m
Waning Crescent, 8% of the Moon is Illuminated
Apr 7
Waning Crescent
Apr 10
New
Apr 18
First Quarter
Apr 25
Full
May 2
Last Quarter

Hourly Weather History & Observations

Time (EDT) Temp. Dew Point Humidity Pressure Visibility Wind Dir Wind Speed Gust Speed Precip Events Conditions
12:56 AM 55.9 °F 41.0 °F 57% 30.22 in 10.0 mi ESE 5.8 mph - N/A   Clear
1:56 AM 55.0 °F 41.0 °F 59% 30.22 in 10.0 mi Calm Calm - N/A   Clear
2:56 AM 52.0 °F 42.1 °F 69% 30.19 in 10.0 mi ESE 3.5 mph - N/A   Clear
3:56 AM 51.1 °F 43.0 °F 74% 30.19 in 10.0 mi East 3.5 mph - N/A   Clear
4:56 AM 50.0 °F 43.0 °F 77% 30.20 in 10.0 mi ENE 3.5 mph - N/A   Clear
5:56 AM 46.9 °F 43.0 °F 86% 30.21 in 10.0 mi Calm Calm - N/A   Partly Cloudy
6:25 AM 48.2 °F 44.6 °F 87% 30.21 in 7.0 mi East 6.9 mph - N/A   Overcast
6:33 AM 48.2 °F 46.4 °F 93% 30.22 in 1.5 mi ESE 8.1 mph - N/A   Overcast
6:44 AM 48.2 °F 46.4 °F 93% 30.22 in 0.8 mi ESE 6.9 mph - N/A   Overcast
6:56 AM 48.9 °F 46.9 °F 93% 30.22 in 0.8 mi East 8.1 mph - N/A   Overcast
7:18 AM 48.2 °F 46.4 °F 93% 30.23 in 0.5 mi East 5.8 mph - N/A Fog Fog
7:25 AM 48.2 °F 46.4 °F 93% 30.23 in 0.2 mi ESE 5.8 mph - N/A Fog Fog
7:41 AM 48.2 °F 46.4 °F 93% 30.24 in 0.5 mi East 6.9 mph - N/A Fog Fog
7:56 AM 48.9 °F 46.9 °F 93% 30.24 in 0.5 mi ESE 6.9 mph - N/A Fog Fog
8:19 AM 50.0 °F 48.2 °F 94% 30.25 in 0.8 mi ESE 5.8 mph - N/A   Overcast
8:56 AM 50.0 °F 48.0 °F 93% 30.25 in 2.0 mi East 3.5 mph - N/A   Overcast
9:18 AM 50.0 °F 48.2 °F 94% 30.25 in 4.0 mi ENE 3.5 mph - N/A   Overcast
9:38 AM 51.8 °F 46.4 °F 82% 30.26 in 5.0 mi Variable 4.6 mph - N/A   Haze
9:56 AM 55.0 °F 48.0 °F 77% 30.26 in 6.0 mi Calm Calm - N/A   Haze
10:56 AM 63.0 °F 50.0 °F 63% 30.25 in 9.0 mi Calm Calm - N/A   Partly Cloudy
11:56 AM 70.0 °F 50.0 °F 49% 30.23 in 10.0 mi ESE 4.6 mph - N/A   Scattered Clouds
12:56 PM 73.0 °F 48.0 °F 41% 30.20 in 10.0 mi South 9.2 mph - N/A   Mostly Cloudy
1:56 PM 75.9 °F 48.0 °F 37% 30.17 in 10.0 mi WSW 12.7 mph 17.3 mph N/A   Mostly Cloudy
2:56 PM 75.0 °F 48.0 °F 38% 30.14 in 10.0 mi WSW 5.8 mph 17.3 mph N/A   Mostly Cloudy
3:56 PM 77.0 °F 48.0 °F 36% 30.12 in 10.0 mi SW 8.1 mph - N/A   Mostly Cloudy
4:56 PM 77.0 °F 48.0 °F 36% 30.10 in 10.0 mi South 9.2 mph - N/A   Mostly Cloudy
5:56 PM 78.1 °F 46.9 °F 33% 30.09 in 10.0 mi South 11.5 mph - N/A   Mostly Cloudy
6:56 PM 77.0 °F 48.0 °F 36% 30.09 in 10.0 mi South 8.1 mph - N/A   Mostly Cloudy
7:56 PM 73.0 °F 48.9 °F 42% 30.11 in 10.0 mi South 5.8 mph - N/A   Mostly Cloudy
8:56 PM 70.0 °F 51.1 °F 51% 30.12 in 10.0 mi SSW 3.5 mph - N/A   Mostly Cloudy
9:56 PM 68.0 °F 53.1 °F 59% 30.14 in 10.0 mi South 9.2 mph - N/A   Partly Cloudy
10:56 PM 66.0 °F 52.0 °F 60% 30.14 in 10.0 mi SSW 8.1 mph - N/A   Clear
11:56 PM 64.9 °F 53.1 °F 65% 30.14 in 10.0 mi South 6.9 mph - N/A   Scattered Clouds